KN4FVH Weather Reports


Display with metric or nautical units.
time (UTC)temp
F
wind
direction
speed
MPH
gust
MPH
rain 1hr
in
rain 24hr
in
rain mn
in
humidity
%
barometer
mb
20260510152608 75 346 1.0 1.0 0.00 0.00 0.00 59 1017.6
20260510152104 75 263 0.0 0.0 0.00 0.00 0.00 60 1017.5
20260510151601 75 308 0.0 1.0 0.00 0.00 0.00 62 1017.3
20260510151100 75 244 0.0 0.0 0.00 0.00 0.00 61 1017.3
20260510150554 73 320 0.0 1.0 0.00 0.00 0.00 60 1017.6
20260510150050 73 11 0.0 0.0 0.00 0.00 0.00 64 1017.3
20260510145547 73 20 2.0 3.0 0.00 0.00 0.00 65 1017.5
20260510145044 73 341 0.0 0.0 0.00 0.00 0.00 64 1017.3
20260510144540 73 343 0.0 0.0 0.00 0.00 0.00 66 1017.3
20260510144036 72 20 1.0 1.0 0.00 0.00 0.00 66 1017.3
20260510143531 72 345 1.0 1.0 0.00 0.00 0.00 65 1017.2
20260510143028 72 69 0.0 0.0 0.00 0.00 0.00 65 1017.5
20260510142525 72 21 1.0 1.0 0.00 0.00 0.00 65 1017.2
20260510142022 71 321 0.0 0.0 0.00 0.00 0.00 65 1017.3
20260510141518 71 329 0.0 0.0 0.00 0.00 0.00 67 1017.3
20260510141016 71 323 0.0 1.0 0.00 0.00 0.00 69 1017.1
20260510140511 70 326 0.0 0.0 0.00 0.00 0.00 72 1017.5
20260510140006 70 8 1.0 1.0 0.00 0.00 0.00 74 1017.4
20260510135501 69 354 0.0 0.0 0.00 0.00 0.00 73 1017.5
20260510134958 69 8 0.0 1.0 0.00 0.00 0.00 75 1017.4
20260510134455 69 358 1.0 1.0 0.00 0.00 0.00 76 1017.4
20260510133952 69 17 1.0 2.0 0.00 0.00 0.00 78 1017.1
20260510133448 68 338 1.0 1.0 0.00 0.00 0.00 77 1017.3
20260510132944 68 61 0.0 0.0 0.00 0.00 0.00 81 1017.3
20260510132441 68 63 0.0 0.0 0.00 0.00 0.00 82 1017.2
20260510131938 67 75 1.0 1.0 0.00 0.00 0.00 83 1017.2
20260510131436 67 114 0.0 0.0 0.00 0.00 0.00 85 1017.3
20260510130932 66 149 0.0 0.0 0.00 0.00 0.00 87 1017.1
20260510130429 66 204 0.0 0.0 0.00 0.00 0.00 89 1017.0
20260510125926 65 203 0.0 0.0 0.00 0.00 0.00 90 1017.0
20260510125422 65 204 0.0 0.0 0.00 0.00 0.00 90 1016.9
20260510124919 65 237 0.0 0.0 0.00 0.00 0.00 91 1016.7
20260510124416 64 249 0.0 0.0 0.00 0.00 0.00 92 1016.8
20260510123912 64 249 0.0 0.0 0.00 0.00 0.00 94 1016.9
20260510123408 64 248 0.0 0.0 0.00 0.00 0.00 95 1016.8
20260510122905 63 216 0.0 0.0 0.00 0.00 0.00 95 1016.8
20260510122359 63 216 0.0 0.0 0.00 0.00 0.00 96 1016.8
20260510121856 63 216 0.0 0.0 0.00 0.00 0.00 96 1016.8
20260510121354 63 216 0.0 0.0 0.00 0.00 0.00 96 1016.5
20260510120851 62 216 0.0 0.0 0.00 0.00 0.00 96 1016.5
20260510120348 62 216 0.0 0.0 0.00 0.00 0.00 96 1016.6
20260510115848 62 216 0.0 0.0 0.00 0.00 0.00 97 1016.4
20260510115346 62 216 0.0 0.0 0.00 0.00 0.00 97 1016.3
20260510114842 62 216 0.0 0.0 0.00 0.00 0.00 97 1016.4
20260510114339 62 216 0.0 0.0 0.00 0.00 0.00 97 1016.4
20260510113839 62 222 0.0 0.0 0.00 0.00 0.00 97 1016.2
20260510113336 62 222 0.0 0.0 0.00 0.00 0.00 97 1016.4
20260510112832 62 222 0.0 0.0 0.00 0.00 0.00 98 1016.1
20260510112330 62 222 0.0 0.0 0.00 0.00 0.00 97 1016.0
20260510111825 61 222 0.0 0.0 0.00 0.00 0.00 97 1015.8
20260510111323 61 222 0.0 0.0 0.00 0.00 0.00 98 1015.8
20260510110822 61 222 0.0 0.0 0.00 0.00 0.00 97 1015.6
20260510110321 61 222 0.0 0.0 0.00 0.00 0.00 97 1015.7
20260510105816 61 205 0.0 0.0 0.00 0.00 0.00 97 1015.5
20260510105316 61 204 0.0 0.0 0.00 0.00 0.00 97 1015.6
20260510104812 61 204 0.0 0.0 0.00 0.00 0.00 97 1015.3
20260510104310 61 204 0.0 0.0 0.00 0.00 0.00 97 1015.5
20260510103806 61 203 0.0 0.0 0.00 0.00 0.00 97 1015.6
20260510103303 61 203 0.0 0.0 0.00 0.00 0.00 97 1015.2
20260510102803 61 204 0.0 0.0 0.00 0.00 0.00 97 1015.3
20260510102259 61 206 0.0 0.0 0.00 0.00 0.00 97 1015.3
20260510101757 61 209 0.0 0.0 0.00 0.00 0.00 97 1015.3
20260510101255 61 215 0.0 0.0 0.00 0.00 0.00 97 1015.0
20260510100751 61 215 0.0 0.0 0.00 0.00 0.00 96 1014.9
20260510100250 62 213 0.0 0.0 0.00 0.00 0.00 96 1014.6
20260510095750 62 213 0.0 0.0 0.00 0.00 0.00 96 1014.8
20260510095245 62 213 0.0 0.0 0.00 0.00 0.00 96 1014.7
20260510094744 62 211 0.0 0.0 0.00 0.00 0.00 96 1014.6
20260510094240 62 212 0.0 0.0 0.00 0.00 0.00 96 1014.6
20260510093736 62 214 0.0 0.0 0.00 0.00 0.00 96 1014.3
20260510093233 62 215 0.0 0.0 0.00 0.00 0.00 96 1014.3
20260510092729 62 215 0.0 0.0 0.00 0.00 0.00 96 1014.4
20260510092225 62 215 0.0 0.0 0.00 0.00 0.00 96 1014.1
20260510091721 62 215 0.0 0.0 0.00 0.00 0.00 96 1014.1
20260510091218 62 213 0.0 0.0 0.00 0.00 0.00 96 1014.0
20260510090714 62 213 0.0 0.0 0.00 0.00 0.00 96 1013.9
20260510090211 62 213 0.0 0.0 0.00 0.00 0.00 96 1014.1
20260510085706 62 213 0.0 0.0 0.00 0.00 0.00 96 1014.1
20260510085202 62 213 0.0 0.0 0.00 0.00 0.00 96 1014.0
20260510084658 62 213 0.0 0.0 0.00 0.00 0.00 95 1014.3
20260510084155 62 213 0.0 0.0 0.00 0.00 0.00 95 1014.0
20260510083652 62 213 0.0 0.0 0.00 0.00 0.00 95 1014.2
20260510083149 62 201 0.0 0.0 0.00 0.00 0.00 95 1013.8
20260510082645 62 200 0.0 0.0 0.00 0.00 0.00 95 1013.9
20260510082140 62 200 0.0 0.0 0.00 0.00 0.00 95 1013.7
20260510081635 62 200 0.0 0.0 0.00 0.00 0.00 95 1013.9
20260510081131 62 200 0.0 0.0 0.00 0.00 0.00 94 1013.7
20260510080631 62 200 0.0 0.0 0.00 0.00 0.00 94 1013.8
20260510080128 62 200 0.0 0.0 0.00 0.00 0.00 94 1013.7
20260510075625 62 198 0.0 0.0 0.00 0.00 0.00 94 1014.0
20260510075122 62 198 0.0 0.0 0.00 0.00 0.00 94 1013.7
20260510074619 62 201 0.0 0.0 0.00 0.00 0.00 95 1014.0
20260510074115 62 201 0.0 0.0 0.00 0.00 0.00 95 1013.9
20260510073611 62 201 0.0 0.0 0.00 0.00 0.00 95 1013.8
20260510073108 62 201 0.0 0.0 0.00 0.00 0.00 95 1013.8
20260510072605 62 201 0.0 0.0 0.00 0.00 0.00 95 1013.7
20260510072101 62 201 0.0 0.0 0.00 0.00 0.00 95 1013.6
20260510071557 62 201 0.0 0.0 0.00 0.00 0.00 95 1013.7
20260510071055 62 201 0.0 0.0 0.00 0.00 0.00 95 1013.6
20260510070551 62 201 0.0 0.0 0.00 0.00 0.00 95 1013.5
20260510070049 62 201 0.0 0.0 0.00 0.00 0.00 94 1013.7
20260510065545 62 201 0.0 0.0 0.00 0.00 0.00 94 1013.7
20260510065041 63 201 0.0 0.0 0.00 0.00 0.00 94 1013.6
20260510064537 63 201 0.0 0.0 0.00 0.00 0.00 94 1013.8
20260510064034 63 201 0.0 0.0 0.00 0.00 0.00 94 1013.9
20260510063531 63 201 0.0 0.0 0.00 0.00 0.00 94 1013.7
20260510063028 63 201 0.0 0.0 0.00 0.00 0.00 94 1013.8
20260510062524 63 201 0.0 0.0 0.00 0.00 0.00 93 1013.6
20260510062019 63 201 0.0 0.0 0.00 0.00 0.00 93 1013.5
20260510061516 64 201 0.0 0.0 0.00 0.00 0.00 93 1013.6
20260510061013 64 201 0.0 0.0 0.00 0.00 0.00 92 1013.7
20260510060509 64 201 0.0 0.0 0.00 0.00 0.00 92 1014.0
20260510060006 64 201 0.0 0.0 0.00 0.00 0.00 92 1013.8
20260510055501 64 201 0.0 0.0 0.00 0.00 0.00 92 1013.8
20260510055000 64 201 0.0 0.0 0.00 0.00 0.00 92 1013.8
20260510054455 64 201 0.0 0.0 0.00 0.00 0.00 92 1013.8
20260510053950 64 201 0.0 0.0 0.00 0.00 0.00 92 1013.8
20260510053445 64 201 0.0 0.0 0.00 0.00 0.00 91 1013.9
20260510052942 64 201 0.0 0.0 0.00 0.00 0.00 91 1013.9
20260510052438 64 201 0.0 0.0 0.00 0.00 0.00 91 1013.8
20260510051934 64 201 0.0 0.0 0.00 0.00 0.00 91 1013.8
20260510051431 64 201 0.0 0.0 0.00 0.00 0.00 90 1014.2
20260510050927 64 201 0.0 0.0 0.00 0.00 0.00 90 1014.3
20260510050424 64 201 0.0 0.0 0.00 0.00 0.00 90 1014.4
20260510045921 64 197 0.0 0.0 0.00 0.00 0.00 90 1014.2
20260510045419 64 196 0.0 0.0 0.00 0.00 0.00 90 1014.1
20260510044915 64 192 0.0 0.0 0.00 0.00 0.00 91 1014.1
20260510044412 64 201 0.0 0.0 0.00 0.00 0.00 91 1014.3
20260510043909 64 201 0.0 0.0 0.00 0.00 0.00 91 1014.3
20260510043404 64 201 0.0 0.0 0.00 0.00 0.00 92 1014.1
20260510042903 64 201 0.0 0.0 0.00 0.00 0.00 92 1014.3
20260510042359 64 201 0.0 0.0 0.00 0.00 0.00 92 1014.0
20260510041854 64 201 0.0 0.0 0.00 0.00 0.00 93 1014.3
20260510041352 64 201 0.0 0.0 0.00 0.00 0.00 93 1014.1
20260510040849 63 201 0.0 0.0 0.00 0.00 0.00 94 1014.2
20260510040346 63 200 0.0 0.0 0.00 0.00 0.00 94 1014.3
20260510035841 63 201 0.0 0.0 0.00 0.00 0.00 95 1014.3
20260510035337 63 201 0.0 0.0 0.00 0.00 0.00 95 1014.0
20260510034833 63 201 0.0 0.0 0.00 0.00 0.00 96 1013.9
20260510034331 63 200 0.0 0.0 0.00 0.00 0.00 96 1014.2
20260510033828 63 200 0.0 0.0 0.00 0.00 0.00 97 1014.1
20260510033325 63 200 0.0 0.0 0.00 0.00 0.00 96 1014.3
20260510032821 63 200 0.0 0.0 0.00 0.00 0.00 96 1013.9
20260510032318 63 200 0.0 0.0 0.00 0.00 0.00 96 1013.9
20260510031813 63 200 0.0 0.0 0.00 0.00 0.00 96 1014.0
20260510031303 63 200 0.0 0.0 0.00 0.00 0.00 96 1013.8
20260510030803 63 200 0.0 0.0 0.00 0.00 0.00 96 1013.7
20260510030300 63 200 0.0 0.0 0.00 0.00 0.00 96 1013.9
20260510025757 63 200 0.0 0.0 0.00 0.00 0.00 96 1014.0
20260510025254 63 200 0.0 0.0 0.00 0.00 0.00 95 1013.7
20260510024751 63 200 0.0 0.0 0.00 0.00 0.00 95 1013.8
20260510024248 63 200 0.0 0.0 0.00 0.00 0.00 95 1013.9
20260510023744 63 200 0.0 0.0 0.00 0.00 0.00 95 1013.9
20260510023241 63 200 0.0 0.0 0.00 0.00 0.00 95 1013.8
20260510022737 63 200 0.0 0.0 0.00 0.00 0.00 95 1013.6
20260510022237 63 200 0.0 0.0 0.00 0.00 0.00 95 1013.7
20260510021732 63 200 0.0 0.0 0.00 0.00 0.00 95 1013.7
20260510021231 63 200 0.0 0.0 0.00 0.00 0.00 95 1013.6
20260510020730 64 200 0.0 0.0 0.00 0.00 0.00 95 1013.6
20260510020225 64 200 0.0 0.0 0.00 0.00 0.00 95 1013.4
20260510015721 64 200 0.0 0.0 0.00 0.00 0.00 95 1013.6
20260510015218 64 200 0.0 0.0 0.00 0.00 0.00 94 1013.7
20260510014713 64 201 0.0 0.0 0.00 0.00 0.00 94 1013.6
20260510014212 64 201 0.0 0.0 0.00 0.00 0.00 93 1013.3
20260510013711 64 201 0.0 0.0 0.00 0.00 0.00 93 1013.5
20260510013208 64 201 0.0 0.0 0.00 0.00 0.00 93 1013.4
20260510012702 65 201 0.0 0.0 0.00 0.00 0.00 92 1013.2
20260510012157 65 201 0.0 0.0 0.00 0.00 0.00 92 1012.8
20260510011652 65 200 0.0 0.0 0.00 0.00 0.00 92 1013.1
20260510011148 65 201 0.0 0.0 0.00 0.00 0.00 91 1012.9
20260510010644 65 200 0.0 0.0 0.00 0.00 0.00 91 1012.9
20260510010141 66 200 0.0 0.0 0.00 0.00 0.00 91 1012.8
20260510005637 66 201 0.0 0.0 0.00 0.00 0.00 90 1012.8
20260510005129 66 201 0.0 0.0 0.00 0.00 0.00 90 1012.6
20260510004627 66 201 0.0 0.0 0.00 0.00 0.00 90 1012.6
20260510004125 66 200 0.0 0.0 0.00 0.00 0.00 90 1012.5
20260510003622 66 200 0.0 0.0 0.00 0.00 0.00 89 1012.7
20260510003118 67 200 0.0 0.0 0.00 0.00 0.00 88 1012.4
20260510002618 67 200 0.0 0.0 0.00 0.00 0.00 88 1012.5
20260510002115 67 200 0.0 0.0 0.00 0.00 0.00 88 1012.6
20260510001612 67 200 0.0 0.0 0.00 0.00 0.00 87 1012.5
20260510001111 68 200 0.0 0.0 0.00 0.00 0.00 87 1012.7
20260510000611 68 200 0.0 0.0 0.00 0.00 0.00 86 1012.8
20260510000108 68 200 0.0 0.0 0.00 0.00 0.00 86 1012.6
20260509235604 68 201 0.0 0.0 0.00 0.00 0.00 85 1012.5
20260509235101 69 201 0.0 0.0 0.00 0.00 0.00 84 1012.4
20260509234557 69 201 0.0 0.0 0.00 0.00 0.00 84 1012.5
20260509234055 69 202 0.0 0.0 0.00 0.00 0.00 84 1012.4
20260509233552 69 202 0.0 0.0 0.00 0.00 0.00 83 1012.1
20260509233050 69 202 0.0 0.0 0.00 0.00 0.00 83 1012.2
20260509232546 70 202 0.0 0.0 0.00 0.00 0.00 82 1012.0
20260509232043 70 202 0.0 0.0 0.00 0.00 0.00 81 1012.0
20260509231539 70 202 0.0 0.0 0.00 0.00 0.00 80 1012.2
20260509231037 70 200 0.0 0.0 0.00 0.00 0.00 80 1012.1
20260509230534 71 201 0.0 0.0 0.00 0.00 0.00 80 1011.9
20260509230031 71 188 0.0 0.0 0.00 0.00 0.00 79 1011.9
20260509225526 71 192 0.0 0.0 0.00 0.00 0.00 78 1011.9
20260509225022 71 188 0.0 0.0 0.00 0.00 0.00 78 1012.0
20260509224518 71 180 0.0 0.0 0.00 0.00 0.00 78 1011.6
20260509224014 71 177 1.0 1.0 0.00 0.00 0.00 77 1011.7
20260509223511 71 177 1.0 1.0 0.00 0.00 0.00 76 1011.7
20260509223010 71 196 0.0 1.0 0.00 0.00 0.00 77 1011.8
20260509222505 71 170 0.0 0.0 0.00 0.00 0.00 77 1011.7
20260509222001 71 179 0.0 1.0 0.00 0.00 0.00 77 1012.0
20260509221457 71 223 0.0 1.0 0.00 0.00 0.00 77 1012.1
20260509220953 71 191 0.0 1.0 0.00 0.00 0.00 77 1011.9
20260509220444 71 217 0.0 1.0 0.00 0.00 0.00 77 1012.0
20260509215940 71 196 0.0 0.0 0.00 0.00 0.00 78 1011.8
20260509215435 71 180 1.0 1.0 0.00 0.00 0.00 77 1012.2
20260509214933 71 218 1.0 1.0 0.00 0.00 0.00 77 1011.9
20260509214430 71 214 0.0 0.0 0.00 0.00 0.00 78 1012.0
20260509213927 71 179 0.0 0.0 0.00 0.00 0.00 79 1011.8
20260509213422 71 183 0.0 0.0 0.00 0.00 0.00 79 1011.8
20260509212921 71 183 0.0 0.0 0.00 0.00 0.00 78 1011.8
20260509212418 71 218 0.0 0.0 0.00 0.00 0.00 77 1011.9
20260509211914 71 218 0.0 0.0 0.00 0.00 0.00 74 1011.7
20260509211410 72 227 1.0 1.0 0.00 0.00 0.00 74 1011.7
20260509210906 72 221 0.0 0.0 0.00 0.00 0.00 76 1011.7
20260509210404 71 182 1.0 1.0 0.00 0.00 0.00 75 1011.6
20260509205904 71 190 0.0 1.0 0.00 0.00 0.00 77 1011.7
20260509205403 71 205 0.0 0.0 0.00 0.00 0.00 76 1011.6
20260509204900 70 209 0.0 0.0 0.00 0.00 0.00 78 1011.7
20260509204356 70 208 0.0 0.0 0.00 0.00 0.00 77 1011.8
20260509203853 70 213 0.0 0.0 0.00 0.00 0.00 77 1012.0
20260509203349 70 204 0.0 0.0 0.00 0.00 0.00 79 1011.6
20260509202846 70 204 0.0 0.0 0.00 0.00 0.00 78 1011.8
20260509202342 70 217 0.0 0.0 0.00 0.00 0.00 78 1011.9
20260509201837 70 218 1.0 1.0 0.00 0.00 0.00 77 1011.9
20260509201333 69 211 0.0 0.0 0.00 0.00 0.00 78 1011.9
20260509200830 69 211 0.0 0.0 0.00 0.00 0.00 78 1011.9
20260509200325 69 219 0.0 0.0 0.00 0.00 0.00 77 1011.9
20260509195822 69 198 0.0 0.0 0.00 0.00 0.00 78 1012.2
20260509195322 69 203 0.0 1.0 0.00 0.00 0.00 78 1012.1
20260509194822 69 195 0.0 0.0 0.00 0.00 0.00 79 1012.2
20260509194318 68 209 0.0 0.0 0.00 0.00 0.00 79 1012.3
20260509193815 68 223 0.0 0.0 0.00 0.00 0.00 79 1012.1
20260509193309 68 210 0.0 0.0 0.00 0.00 0.00 80 1012.3
20260509192806 68 211 0.0 0.0 0.00 0.00 0.00 79 1012.3
20260509192305 68 211 0.0 0.0 0.00 0.00 0.00 79 1012.7
20260509191757 68 211 0.0 0.0 0.00 0.00 0.00 79 1012.3
20260509191254 69 211 0.0 0.0 0.00 0.00 0.00 78 1012.6
20260509190749 69 219 0.0 0.0 0.00 0.00 0.00 76 1012.7
20260509190246 69 196 1.0 1.0 0.00 0.00 0.00 76 1012.7
20260509185744 69 176 0.0 0.0 0.00 0.00 0.00 76 1012.6
20260509185240 69 188 0.0 1.0 0.00 0.00 0.00 76 1012.4
20260509184737 69 187 1.0 1.0 0.00 0.00 0.00 75 1012.4
20260509184235 69 174 0.0 0.0 0.00 0.00 0.00 74 1012.6
20260509183731 70 176 0.0 0.0 0.00 0.00 0.00 75 1012.5
20260509183226 70 174 0.0 1.0 0.00 0.00 0.00 73 1012.5
20260509182721 72 186 0.0 1.0 0.00 0.00 0.00 71 1012.5
20260509182220 72 224 0.0 1.0 0.00 0.00 0.00 69 1012.5
20260509181717 71 186 0.0 0.0 0.00 0.00 0.00 71 1012.7
20260509181214 71 235 2.0 2.0 0.00 0.00 0.00 69 1012.9
20260509180711 71 227 1.0 1.0 0.00 0.00 0.00 69 1012.9
20260509180207 71 287 1.0 1.0 0.00 0.00 0.00 69 1013.0
20260509175704 71 194 0.0 0.0 0.00 0.00 0.00 68 1013.2
20260509175200 71 176 0.0 0.0 0.00 0.00 0.00 68 1013.1
20260509174656 70 192 0.0 0.0 0.00 0.00 0.00 68 1013.0
20260509174151 70 178 0.0 0.0 0.00 0.00 0.00 68 1013.1
20260509173648 70 183 1.0 1.0 0.00 0.00 0.00 66 1013.3
20260509173143 70 181 0.0 0.0 0.00 0.00 0.00 66 1013.3
20260509172640 70 207 0.0 0.0 0.00 0.00 0.00 66 1013.2
20260509172137 69 200 0.0 0.0 0.00 0.00 0.00 67 1013.4
20260509171632 69 194 0.0 0.0 0.00 0.00 0.00 68 1013.4
20260509171129 70 192 1.0 1.0 0.00 0.00 0.00 66 1013.6
20260509170625 70 209 0.0 1.0 0.00 0.00 0.00 63 1013.6
20260509170122 70 205 0.0 0.0 0.00 0.00 0.00 64 1013.5
20260509165620 70 184 0.0 1.0 0.00 0.00 0.00 66 1013.4
20260509165116 71 234 1.0 1.0 0.00 0.00 0.00 62 1013.7
20260509164611 71 201 0.0 1.0 0.00 0.00 0.00 63 1013.6
20260509164107 70 230 0.0 1.0 0.00 0.00 0.00 64 1013.7
20260509163606 70 192 0.0 0.0 0.00 0.00 0.00 67 1013.7
20260509163100 70 145 0.0 0.0 0.00 0.00 0.00 67 1013.9
20260509162557 70 181 0.0 1.0 0.00 0.00 0.00 66 1014.0
20260509162053 69 178 1.0 1.0 0.00 0.00 0.00 66 1013.5
20260509161545 70 172 1.0 1.0 0.00 0.00 0.00 66 1013.6
20260509161045 69 229 0.0 0.0 0.00 0.00 0.00 66 1013.8
20260509160541 70 163 2.0 2.0 0.00 0.00 0.00 66 1014.0
20260509160036 69 154 1.0 1.0 0.00 0.00 0.00 66 1013.9
20260509155532 69 192 0.0 0.0 0.00 0.00 0.00 68 1013.6
20260509155029 69 186 1.0 1.0 0.00 0.00 0.00 71 1013.8
20260509154525 69 215 1.0 1.0 0.00 0.00 0.00 68 1013.7
20260509154023 68 226 0.0 1.0 0.00 0.00 0.00 69 1013.7
20260509153520 68 155 1.0 1.0 0.00 0.00 0.00 69 1013.7
20260509153017 68 240 0.0 1.0 0.00 0.00 0.00 69 1013.9